Flag for Germany Weather past 2 weeks in Güstrow, Mecklenburg-Western Pomerania, Germany

Now
72 °F

Mild.


Feels Like: 72 °F
Forecast: 63 / 93 °F
Wind: 2 mph from Northeast

Location: Laage

Current Time: Jul 4, 2015 at 1:30:32 AM

Latest Report: Jul 4, 2015 at 12:20 AM


Visibility: N/A

Pressure: 30.21 "Hg

Humidity: 78%

Dew point: 64 °F

Location of GüstrowLocation

Historic Weather in Güstrow — Graph

°F

Güstrow temperature yesterday

Maximum temperature yesterday: 88 °F (at 4:20 PM)
Minimum temperature yesterday: 59 °F (at 4:20 AM)
Average temperature yesterday: 76 °F

Past Weeks' High & Low Weather Summary

 TemperatureHumidityPressure
High88 °F (Jul 3, 4:20 PM)100% (Jun 20, 3:20 AM)30.30 "Hg (Jun 20, 3:20 AM)
Low48 °F (Jun 19, 12:20 AM)33% (Jul 3, 2:45 PM)29.59 "Hg (Jun 23, 1:20 AM)
Average61 °F75%30.02 "Hg
* Reported Jun 19 12:20 AM — Jul 4 12:20 AM, Güstrow, Weather by CustomWeather, © 2015

Note: Actual official high and low records may vary slightly from our data, if they occured in-between our weather recording intervals... More about our weather records

Advertising

Güstrow weather history for previous 24 hours

 ConditionsComfort  
Time TempWeatherWind HumidityBarometerVisibility
12:20 AM
Sat, Jul 4
72 °FMild.2 mph78%30.21 "HgN/A
11:20 PM
Fri, Jul 3
72 °FPassing clouds.2 mph78%30.21 "HgN/A
10:20 PM75 °FPassing clouds.5 mph69%30.21 "HgN/A
9:20 PM79 °FPassing clouds.6 mph58%30.21 "HgN/A
8:20 PM82 °FPassing clouds.6 mph48%30.21 "HgN/A
7:20 PM86 °FPassing clouds.5 mph40%30.21 "HgN/A
6:20 PM88 °FScattered clouds.2 mph35%30.21 "HgN/A
5:20 PM88 °FScattered clouds.6 mph35%30.24 "HgN/A
4:20 PM88 °FPartly sunny.6 mph35%30.24 "HgN/A
3:20 PM86 °FPartly sunny.5 mph33%30.24 "HgN/A
2:45 PM86 °FPartly sunny.7 mph33%30.24 "HgN/A
2:20 PM86 °FPartly sunny.7 mph35%30.24 "HgN/A
1:20 PM86 °FScattered clouds.8 mph35%30.24 "HgN/A
12:20 PM84 °FPassing clouds.10 mph37%30.24 "HgN/A
11:20 AM82 °FPassing clouds.9 mph42%30.27 "HgN/A
10:20 AM79 °FPassing clouds.9 mph48%30.27 "HgN/A
9:20 AM75 °FPassing clouds.8 mph54%30.27 "HgN/A
8:20 AM72 °FPassing clouds.8 mph57%30.27 "HgN/A
7:20 AM66 °FPassing clouds.7 mph68%30.27 "HgN/A
6:20 AM61 °FPassing clouds.5 mph77%30.27 "HgN/A
5:20 AM59 °FPassing clouds.6 mph77%30.27 "HgN/A
4:20 AM59 °FCool.6 mph77%30.27 "HgN/A
3:20 AM61 °FCool.8 mph77%30.27 "HgN/A
2:20 AM63 °FMild.7 mph77%30.27 "HgN/A
1:20 AM63 °FMild.7 mph77%30.24 "HgN/A
Weather by CustomWeather, © 2015

See weather overviewHow to use our weather pages